Showing default

MERIDIAN 8, 44453

Orbit data source: Space-Track

MERIDIAN 8, 44453 is a payload satellite owned by VVKO VKS (CIS) in HEO that was launched on Tue, 30 Jul 2019 UTC via a SOYUZ-2-1A launch vehicle from the Plesetsk Missile And Space Complex (PKMTR). Payload-class satellites include a variety of spacecraft equipped with specific instruments for various scientific and technological missions. These include communications satellites like Starlink; space stations such as the ISS; scientific satellites like the Hubble; Earth observation satellites from companies like Planet Labs, Umbra, and HawkEye 360; GPS; miniature CubeSats for education and research; and military/defense satellites.

Loading next visibility...
Identifier
44453, 2019-046A
Orbit
HEO
Country
Flag of CISCIS
Related business
Manufacturer
Resehetnev ISS
Mission
Partially operational Defense Communications
Bus & Motor
MERIDIAN, Unknown motor
Mass
~2,000 kg wet, ~2,000 kg dry
Launch date (UTC)
2019-07-30 (6 years ago)
Launch vehicle
SOYUZ-2-1A
Launch site
Plesetsk Missile And Space Complex (PKMTR)
Object type
Payload
Rocket body
Debris
Shape & HBR
Box + 2 Pan, 5.0 m
Radar Cross Section
14.304 m², Large (>1 m²)

Expand to show TLE details & history
Last TLE update: 2 days ago

TLE from 2 days ago
0 MERIDIAN 8
1 44453U 19046A   25303.43228462  .00000193  00000-0  00000-0 0  9997
2 44453  62.9308  79.8212 6989073 274.1771  15.6553  2.00621164 45736
Epoch: 2025-10-30T10:22Z
TLE epoch observation values (Epoch: 2025-10-30T10:22:29.391Z)
Latitude
0.00004°
Longitude
-114.85097°
Altitude
6,564.155 km
Speed
6.826 km/s
True Right ascension
05h 19m 03s
True Declination
0° 00' 00"
Sunlit
Object was in daylight at epoch
Visualization orbit readout
Latitude
Unknown
Longitude
Unknown
Altitude
Unknown
Speed
Unknown
Apparent Right ascension
Unknown
Apparent Declination
Unknown
Sunlit
N/A
Visualization observer readout
Local Sidereal Time
05:01:05
Azimuth
Unknown
Elevation
Unknown
Doppler factor
Unknown
Orbital elements
Apogee altitude
38,735.37 km
Perigee altitude
1,617.207 km
Semi-major axis
26,554.425 km
Eccentricity
0.69891
Inclination
62.9308°
RAAN
79.8212°
Arg. of periapsis
274.1771°
True anomaly
86.09107°
Mean anomaly
15.6553°
Eccentric anomaly
42.92947°
Mean motion
0.50158 °/min
Orbital period
717.74 mins
BSTAR
0
Loading maneuver chart data...
Computing Atmospheric mass density...
Loading historical data...
Loading historical data...
Loading historical data...
Loading historical data...
Loading historical data...
Loading historical data...
Loading historical data...
Other satellites on launch #46 in the year 2019 (2019-07-30 UTC)

Documentation

Showing up to 5 results
|